[Iaude] MPEC T145: 2023 TB5 [a=1.08,e=0.04,i=15.6,H=24.4]

mpec at marsden.cfa.harvard.edu mpec at marsden.cfa.harvard.edu
Wed Oct 11 01:14:09 EDT 2023


M.P.E.C. 2023-T145                             Issued 2023 October 11, 05:12 UT

     The Minor Planet Electronic Circulars contain information on unusual
         minor planets, routine data on comets and natural satellites,
         and occasional editorial announcements.  They are published
    on behalf of Division F of the International Astronomical Union by the
          Minor Planet Center, Smithsonian Astrophysical Observatory,
                          Cambridge, MA 02138, U.S.A.
			  
             Prepared using the Tamkin Foundation Computer Network

                              MPC at CFA.HARVARD.EDU
            URL https://www.minorplanetcenter.net/    ISSN 1523-6714

                                    2023 TB5                                    


Observations:
     K23T05B*1C2023 10 09.19223321 58 03.252+31 19 31.62         20.79GVET145G96
     K23T05B 1C2023 10 09.19799321 58 05.261+31 18 33.19         20.26GVET145G96
     K23T05B 1C2023 10 09.20372121 58 07.266+31 17 33.32         20.52GVET145G96
     K23T05B KC2023 10 09.22281421 58 13.919+31 14 15.72         20.27GVET145I52
     K23T05B KC2023 10 09.22436721 58 14.480+31 13 59.84         20.41GVET145I52
     K23T05B KC2023 10 09.22592221 58 15.006+31 13 43.43         20.52GVET145I52
     K23T05B KC2023 10 09.32427121 58 50.056+30 56 33.65         20.36GVET145I52
     K23T05B KC2023 10 09.32683121 58 51.024+30 56 07.08         20.91GVET145I52
     K23T05B KC2023 10 09.32940221 58 51.956+30 55 39.83         20.67GVET145I52
     K23T05B KC2023 10 09.33196021 58 52.914+30 55 12.50         20.83GVET145I52
     K23T05B KC2023 10 09.86156 22 02 25.53 +29 22 47.8          20.5 GVET145204
     K23T05B KB2023 10 09.87408022 02 30.93 +29 20 37.4          20.6 GVET145I93
     K23T05B KC2023 10 09.87632 22 02 30.76 +29 20 10.6                VET145204
     K23T05B KB2023 10 09.87845522 02 32.46 +29 19 51.4          20.4 GVET145I93
     K23T05B KB2023 10 09.88282722 02 33.98 +29 19 05.0          19.6 GVET145I93
     K23T05B KC2023 10 10.07203422 03 50.06 +28 45 39.3          20.7 VuET145H21
     K23T05B KC2023 10 10.07483122 03 51.04 +28 45 09.7                uET145H21
     K23T05B KC2023 10 10.08405822 03 54.29 +28 43 31.5          20.9 VuET145H21
     K23T05B KC2023 10 11.03650722 10 06.30 +25 50 21.3          21.0 VuET145H21
     K23T05B KC2023 10 11.03930222 10 07.29 +25 49 50.7          21.2 VuET145H21
     K23T05B KC2023 10 11.04209722 10 08.28 +25 49 19.8          21.2 VuET145H21
     K23T05B KC2023 10 11.08770622 10 26.25 +25 41 00.6          20.6 GXET145858
     K23T05B KC2023 10 11.09541622 10 28.98 +25 39 35.1          20.8 GXET145858
     K23T05B KC2023 10 11.10128322 10 31.03 +25 38 30.4          20.5 GXET145858

Observer details:
204 Schiaparelli Observatory.  Observers L. Buzzi, G. Galli.  0.84-m f/3.5
    reflector + CCD.
858 Tebbutt Observatory, Edgewood.  Observer F. B. Zoltowski.  0.51-m f/8.1
    Schmidt-Cassegrain + CCD.
G96 Mt. Lemmon Survey.  Observer K. W. Wierzchos.  Measurers E. C. Beshore, D.
    Fay, J. B. Fazekas, D. C. Fuls, A. R. Gibbs, A. D. Grauer, H. Groeller, J.
    K. Hogan, R. A. Kowalski, S. M. Larson, G. J. Leonard, D. Rankin, R. L.
    Seaman, F. C. Shelly, K. W. Wierzchos.  1.5-m reflector + 10K CCD.
H21 Astronomical Research Observatory, Westfield.  Observer R. Holmes.
    Measurers T. Linder, R. Holmes, L. Horn.  0.76-m f/3.0 astrograph + CCD.
I52 Steward Observatory, Mt. Lemmon Station.  Observer J. B. Fazekas.
    Measurers E. C. Beshore, D. Fay, J. B. Fazekas, D. C. Fuls, A. R. Gibbs,
    A. D. Grauer, H. Groeller, J. K. Hogan, R. A. Kowalski, S. M. Larson, G.
    J. Leonard, D. Rankin, R. L. Seaman, F. C. Shelly, K. W. Wierzchos.  1.0-m
    prime focus + CCD.
I93 St Pardon de Conques.  Observer F. Losse.  0.40-m f/3.7 reflector + CMO.

Orbital elements:
2023 TB5                                                 Earth MOID = 0.0626 AU
Epoch 2023 Sept. 13.0 TT = JDT 2460200.5                Veres                   
M  24.18186              (2000.0)            P               Q                  
n   0.87687650     Peri.  118.87609     +0.78407872     +0.61099891             
a   1.0810450      Node   203.98160     -0.62052814     +0.76806448             
e   0.0374101      Incl.   15.56935     -0.01286038     +0.19172188             
P   1.12           H   24.49          G   0.15           U   8                  
Residuals in seconds of arc
231009 G96  0.0   0.0     231009 I52  0.0   0.3+    231010 H21  0.1+  0.3+
231009 G96  0.0   0.9+    231009 I52  0.2+  0.1+    231010 H21  0.3+  0.3+
231009 G96  0.2+  0.1+    231009 204  0.3-  0.1-    231011 H21  0.1-  0.0
231009 I52  0.0   0.1-    231009 I93  0.4+  0.5-    231011 H21  0.0   0.1+
231009 I52  0.3+  0.1+    231009 204  0.3-  0.4-    231011 H21  0.1+  0.0
231009 I52  0.0   0.2-    231009 I93  0.2+  0.1-    231011 858  0.5-  0.4+
231009 I52  0.3-  0.0     231009 I93  0.1-  0.0     231011 858  0.1+  0.2-
231009 I52  0.1+  0.4+    231010 H21  0.1+  0.2+    231011 858  0.2+  0.2-

Ephemeris:
2023 TB5                 a,e,i = 1.08, 0.04, 16                  q = 1.0406
Date    TT    R. A. (2000) Decl.     Delta      r    Elong.  Phase     V
2023 09 11    19 19 18.1 +65 31 20   0.1703  1.0439    97.8    72.9    23.3
...
2023 09 26    20 33 04.5 +56 10 32   0.1173  1.0487   110.0    64.0    22.2
...
2023 10 04    21 23 51.1 +44 02 58   0.09240 1.0520   121.7    54.1    21.4
...
2023 10 10    22 03 20.0 +28 58 57   0.07995 1.0548   132.8    44.1    20.8
2023 10 11    22 09 48.8 +25 57 45   0.07872 1.0552   134.5    42.4    20.7
2023 10 12    22 16 14.2 +22 49 56   0.07778 1.0557   136.1    40.9    20.7
...
2023 10 18    22 53 02.8 +03 16 25   0.07877 1.0588   140.8    36.5    20.6
...
2023 10 26    23 35 58.5 -17 41 28   0.09632 1.0632   133.7    42.5    21.2
...
2023 11 10    00 36 28.7 -35 04 46   0.1545  1.0720   118.1    54.6    22.6

M. P. C. Staff               (C) Copyright 2023 MPC           M.P.E.C. 2023-T145





More information about the Iaude mailing list